Location: Newark
(50.4348°N, 30.5552°E)
Time: 14:43:38
(UTC+00:00)

Transit 2A - Visible Passes

Search period start: 20 January 2020 00:00
Search period end: 30 January 2020 00:00
Orbit: 601 x 957 km, 66.7° (Epoch: 20 January)

Date Brightness Start Highest point End Pass type
(mag) Time Alt. Az. Time Alt. Az. Time Alt. Az.
20 Jan 6.8 02:38:53 39° NE 02:38:58 39° NE 02:43:37 10° ESE visible
20 Jan 6.3 04:19:23 20° WNW 04:22:09 40° WSW 04:26:54 10° S visible
21 Jan 7.7 02:06:00 26° ENE 02:06:00 26° ENE 02:09:03 10° E visible
21 Jan 5.9 03:46:29 37° WNW 03:48:05 56° WSW 03:53:06 10° SSE visible
22 Jan 8.5 01:33:10 15° E 01:33:10 15° E 01:34:20 10° E visible
22 Jan 5.6 03:13:40 74° WNW 03:14:00 79° SW 03:19:06 10° SSE visible
22 Jan 7.7 04:54:14 10° W 04:56:31 13° WSW 04:58:53 10° SW visible
23 Jan 6.4 02:40:56 54° ESE 02:40:56 54° ESE 02:44:58 10° SE visible
23 Jan 7.2 04:21:27 18° W 04:22:35 19° WSW 04:26:09 10° SSW visible
24 Jan 7.7 02:08:17 26° ESE 02:08:17 26° ESE 02:10:40 10° SE visible
24 Jan 6.9 03:48:48 27° WSW 03:48:48 27° WSW 03:52:55 10° S visible
25 Jan 8.6 01:35:43 13° ESE 01:35:43 13° ESE 01:36:14 10° ESE visible
25 Jan 7.0 03:16:15 29° SSW 03:16:15 29° SSW 03:19:22 10° S visible
26 Jan 7.7 02:43:46 21° S 02:43:46 21° S 02:45:36 10° SSE visible
26 Jan 7.9 17:21:05 10° S 17:21:36 13° S 17:21:36 13° S visible
27 Jan 8.5 02:11:23 11° SSE 02:11:23 11° SSE 02:11:38 10° SSE visible
27 Jan 7.2 16:47:28 10° S 16:49:16 20° SSE 16:49:16 20° SSE visible
28 Jan 7.0 16:14:10 10° SSE 16:16:53 19° ESE 16:16:53 19° ESE visible
28 Jan 7.5 17:55:34 10° SW 17:57:25 24° SW 17:57:25 24° SW visible
29 Jan 7.4 15:41:26 10° SE 15:43:19 13° ESE 15:44:27 12° E visible
29 Jan 5.8 17:21:22 10° SW 17:24:59 61° SW 17:24:59 61° SW visible
